Stewartville, MN

9:05 PM CST on February 09, 2016 (GMT -0600)
Rochester International

Weather History for KRST - January, 2014

Change the Weather History Date:

Saturday, January 18, 2014

  Actual Average Record
Temperature  
Mean Temperature 11 °F 15 °F  
Max Temperature 19 °F 23 °F 46 °F (1919)
Min Temperature 3 °F 7 °F -31 °F (1967)
Degree Days  
Heating Degree Days 54 50  
Month to date heating degree days 1023 891  
Since 1 July heating degree days 4317 3969  
Cooling Degree Days 0 0  
Month to date cooling degree days 0 0  
Year to date cooling degree days 0 0  
Moisture  
Dew Point 7 °F    
Average Humidity 78    
Maximum Humidity 88    
Minimum Humidity 67    
Precipitation  
Precipitation 0.22 in 0.03 in 0.48 in (1996)
Month to date precipitation 0.53 0.50  
Year to date precipitation 0.53 0.50  
Snow  
Snow 4.10 in 0.40 in 6.90 in (1996)
Month to date snowfall 8.0 6.6  
Since 1 July snowfall 22.4 26.0  
Snow Depth 8.00 in    
Sea Level Pressure  
Sea Level Pressure 29.72 in    
Wind  
Wind Speed 14 mph (ESE)    
Max Wind Speed 23 mph    
Max Gust Speed 28 mph    
Visibility 6 miles    
Events Fog , Snow    
T = Trace of Precipitation, MM = Missing Value Source: NWS Daily Summary

Daily Weather History Graph

Daily Weather History Graph

Search for Another Location

Airport or City:

Trip Planner

Search our weather history database for the weather conditions in past years. The results will help you decide how hot, cold, wet, or windy it might be!

Date:

Astronomy

Jan. 18, 2014 Rise Set
Actual Time 7:39 AM CST 5:01 PM CST
Civil Twilight 7:07 AM CST 5:33 PM CST
Nautical Twilight 6:32 AM CST 6:09 PM CST
Astronomical Twilight 5:57 AM CST 6:43 PM CST
Moon 7:51 PM CST (1/18) 8:33 AM CST (1/18)
Length of Visible Light 10h 26m
Length of Day
9h 22m
Waning Gibbous, 94% of the Moon is Illuminated
Jan 18
Waning Gibbous
Jan 23
Last Quarter
Jan 30
New
Feb 6
First Quarter
Feb 14
Full

Hourly Weather History & Observations

Time (CST) Temp. Windchill Dew Point Humidity Pressure Visibility Wind Dir Wind Speed Gust Speed Precip Events Conditions
12:54 AM 6.1 °F -7.8 °F -0.0 °F 76% 29.84 in 10.0 mi SSE 9.2 mph - N/A   Overcast
1:54 AM 9.0 °F -6.6 °F 1.9 °F 73% 29.80 in 10.0 mi SSE 12.7 mph - N/A   Overcast
2:54 AM 10.0 °F -5.9 °F 3.9 °F 76% 29.77 in 9.0 mi SSE 13.8 mph - 0.00 in   Overcast
3:08 AM 10.9 °F -4.7 °F 3.9 °F 73% 29.68 in 6.0 mi SE 13.8 mph - 0.00 in Snow Light Snow
3:23 AM 10.9 °F -3.4 °F 5.0 °F 77% 29.67 in 1.8 mi SE 11.5 mph - 0.00 in Snow Light Snow
3:31 AM 10.9 °F -4.1 °F 6.1 °F 81% 29.66 in 0.8 mi SSE 12.7 mph - 0.00 in Snow Light Snow
3:39 AM 12.0 °F -3.4 °F 7.0 °F 80% 29.66 in 0.8 mi SSE 13.8 mph - 0.01 in Snow Light Snow
3:54 AM 12.0 °F -5.1 °F 8.1 °F 84% 29.73 in 0.5 mi SSE 17.3 mph - 0.02 in Fog , Snow Snow
4:54 AM 12.0 °F -6.5 °F 8.1 °F 84% 29.65 in 0.5 mi SSE 20.7 mph - 0.04 in Fog , Snow Snow
5:03 AM 12.0 °F -6.0 °F 8.1 °F 84% 29.55 in 0.2 mi SE 19.6 mph - 0.01 in Fog Light Freezing Fog
5:10 AM 12.0 °F -6.9 °F 8.1 °F 84% 29.54 in 0.5 mi SE 21.9 mph - 0.01 in Fog Light Freezing Fog
5:30 AM 12.0 °F -6.0 °F 8.1 °F 84% 29.52 in 0.8 mi SE 19.6 mph - 0.01 in Snow Light Snow
5:54 AM 12.9 °F -4.9 °F 8.1 °F 81% 29.60 in 0.5 mi SSE 19.6 mph - 0.02 in Snow Snow
6:14 AM 12.9 °F -3.4 °F 9.0 °F 84% 29.53 in 1.0 mi SSE 16.1 mph - 0.01 in Snow Light Snow
6:22 AM 12.9 °F -3.9 °F 9.0 °F 84% 29.53 in 1.0 mi SSE 17.3 mph - 0.02 in Snow Light Snow
6:29 AM 12.9 °F -4.9 °F 9.0 °F 84% 29.53 in 1.5 mi SSE 19.6 mph - 0.02 in Snow Light Snow
6:36 AM 12.9 °F -5.3 °F 8.1 °F 81% 29.52 in 2.0 mi SE 20.7 mph - 0.02 in Snow Light Snow
6:39 AM 12.9 °F -4.9 °F 8.1 °F 81% 29.52 in 1.2 mi SSE 19.6 mph - 0.02 in Snow Light Snow
6:43 AM 12.9 °F -5.3 °F 9.0 °F 84% 29.52 in 0.8 mi SE 20.7 mph - 0.02 in Snow Light Snow
6:54 AM 12.9 °F -4.9 °F 9.0 °F 84% 29.61 in 0.8 mi SE 19.6 mph - 0.02 in Snow Light Snow
7:02 AM 12.9 °F -3.9 °F 9.0 °F 84% 29.52 in 3.0 mi SE 17.3 mph - 0.01 in Snow Light Snow
7:22 AM 12.9 °F -4.9 °F 8.1 °F 81% 29.53 in 3.0 mi SE 19.6 mph - 0.01 in Snow Light Snow
7:54 AM 12.9 °F -4.4 °F 9.0 °F 84% 29.62 in 3.0 mi ESE 18.4 mph - 0.01 in Snow Light Snow
8:54 AM 12.9 °F -3.4 °F 8.1 °F 81% 29.66 in 9.0 mi ESE 16.1 mph - 0.00 in   Overcast
9:54 AM 14.0 °F 0.5 °F 8.1 °F 77% 29.70 in 4.0 mi East 11.5 mph - 0.00 in Snow Light Snow
10:05 AM 12.9 °F -3.4 °F 7.0 °F 77% 29.62 in 2.5 mi East 16.1 mph - 0.00 in Snow Light Snow
10:20 AM 12.9 °F -2.2 °F 7.0 °F 77% 29.63 in 3.0 mi East 13.8 mph - 0.00 in Snow Light Snow
10:54 AM 14.0 °F -0.8 °F 7.0 °F 74% 29.74 in 6.0 mi ENE 13.8 mph - 0.00 in Snow Light Snow
11:25 AM 15.1 °F 1.1 °F 7.0 °F 70% 29.67 in 9.0 mi ENE 12.7 mph - 0.00 in   Scattered Clouds
11:54 AM 14.0 °F -0.8 °F 7.0 °F 74% 29.79 in 10.0 mi NE 13.8 mph - 0.00 in   Clear
12:52 PM 17.6 °F 3.7 °F 8.6 °F 68% 29.73 in 5.0 mi NE 13.8 mph - 0.00 in Snow Light Snow
12:54 PM 17.1 °F 3.0 °F 9.0 °F 71% 29.81 in 5.0 mi NE 13.8 mph - 0.00 in Snow Light Snow
1:05 PM 17.1 °F 2.0 °F 9.0 °F 71% 29.74 in 6.0 mi NNE 16.1 mph - 0.00 in   Mostly Cloudy
1:18 PM 17.1 °F 3.0 °F 9.0 °F 71% 29.75 in 10.0 mi NNE 13.8 mph - 0.00 in   Scattered Clouds
1:54 PM 17.1 °F 1.0 °F 9.0 °F 71% 29.86 in 10.0 mi NNE 18.4 mph - 0.00 in   Clear
2:54 PM 18.0 °F 4.8 °F 10.0 °F 71% 29.90 in 10.0 mi NNE 12.7 mph - N/A   Clear
3:43 PM 18.0 °F 3.1 °F 9.0 °F 68% 29.84 in 10.0 mi North 16.1 mph - N/A   Mostly Cloudy
3:54 PM 18.0 °F 5.4 °F 9.0 °F 68% 29.92 in 10.0 mi NNE 11.5 mph - N/A   Scattered Clouds
4:54 PM 12.9 °F 0.7 °F 6.1 °F 74% 29.96 in 10.0 mi NNW 9.2 mph - N/A   Clear
5:54 PM 10.9 °F -2.6 °F 5.0 °F 77% 30.00 in 10.0 mi WNW 10.4 mph - N/A   Clear
6:54 PM 7.0 °F -4.5 °F 3.0 °F 84% 30.00 in 10.0 mi West 6.9 mph - N/A   Clear
7:54 PM 9.0 °F -7.3 °F 3.9 °F 80% 29.98 in 10.0 mi West 13.8 mph - N/A   Clear
8:54 PM 10.0 °F -4.5 °F 5.0 °F 80% 29.96 in 9.0 mi West 11.5 mph - N/A   Partly Cloudy
9:54 PM 12.9 °F -1.6 °F 8.1 °F 81% 29.92 in 10.0 mi West 12.7 mph - N/A   Scattered Clouds
10:54 PM 12.9 °F -3.9 °F 8.1 °F 81% 29.89 in 9.0 mi West 17.3 mph - N/A   Overcast
11:54 PM 14.0 °F -2.5 °F 9.0 °F 80% 29.84 in 10.0 mi WSW 17.3 mph - N/A   Partly Cloudy